Location: Sunnyvale
(37.3814°N, 122.0645°W)
Time: 17:11:00
(UTC-08:00)

BlueWalker 3 - Pass Details

Date: 24 December 2025
Orbit: 452 x 463 km, 53.2° (Epoch: 13 January)

Event Time Altitude Azimuth Distance (km) Brightness Sun altitude
Exits shadow 05:21:05 30° 30° (NNE) 849 3.2 -22.9°
Drops below altitude 10° 05:23:03 10° 41° (NE) 1,592 4.8 -22.5°
Sets 05:25:13 0° 45° (NE) 2,470 5.9 -22.1°
